Flag for Norway Weather past 2 weeks in Vestby, Norway

Now
50 °F

Passing clouds.


Feels Like: 47 °F
Forecast: 40 / 52 °F
Wind: 7 mph from East

Location: Rygge

Current Time: Sep 23, 2014 at 9:15:35 PM

Latest Report: Sep 23, 2014 at 8:20 PM


Visibility: N/A

Pressure: 29.86 "Hg

Humidity: 82%

Dew point: 45 °F

Location of VestbyLocation

Historic Weather in Vestby — Graph

°F

Vestby temperature yesterday

Maximum temperature yesterday: 55 °F (at 2:20 PM)
Minimum temperature yesterday: 43 °F (at 11:20 PM)
Average temperature yesterday: 50 °F

Past Weeks' High & Low Weather Summary

 TemperatureHumidityPressure
High68 °F (Sep 13, 2:50 PM)100% (Sep 8, 10:50 PM)30.48 "Hg (Sep 8, 10:50 PM)
Low34 °F (Sep 23, 4:20 AM)41% (Sep 22, 2:20 PM)29.77 "Hg (Sep 9, 2:20 AM)
Average54 °F80%30.15 "Hg
* Reported Sep 8 7:20 PM — Sep 23 7:50 PM, Vestby, Weather by CustomWeather, © 2014

Note: Actual official high and low records may vary slightly from our data, if they occured in-between our weather recording intervals... More about our weather records

Advertising

Vestby weather history for previous 24 hours

 ConditionsComfort  
Time TempWeatherWind HumidityBarometerVisibility
7:50 PM
Sep 23
50 °FPassing clouds.9 mph82%29.86 "HgN/A
7:20 PM50 °FPartly sunny.9 mph88%29.86 "HgN/A
6:50 PM54 °FScattered clouds.8 mph77%29.86 "HgN/A
6:20 PM55 °FBroken clouds.9 mph72%29.89 "HgN/A
5:50 PM55 °FBroken clouds.9 mph72%29.89 "HgN/A
5:20 PM55 °FBroken clouds.9 mph67%29.89 "HgN/A
4:50 PM55 °FBroken clouds.13 mph67%29.92 "HgN/A
4:20 PM55 °FBroken clouds.12 mph63%29.92 "HgN/A
3:50 PM55 °FBroken clouds.14 mph63%29.95 "HgN/A
3:20 PM55 °FPartly sunny.14 mph63%29.95 "HgN/A
2:50 PM54 °FPartly sunny.13 mph67%29.95 "HgN/A
2:20 PM54 °FPartly sunny.14 mph63%29.95 "HgN/A
1:50 PM54 °FPartly sunny.13 mph58%29.95 "HgN/A
1:20 PM55 °FPartly sunny.12 mph59%29.98 "HgN/A
12:50 PM54 °FPartly sunny.14 mph58%29.98 "HgN/A
12:20 PM54 °FPartly sunny.12 mph58%29.98 "HgN/A
11:20 AM48 °FPartly sunny.7 mph76%29.98 "HgN/A
10:50 AM48 °FPartly sunny.7 mph76%30.01 "HgN/A
10:20 AM46 °FBroken clouds.6 mph76%30.01 "HgN/A
9:50 AM46 °FPartly sunny.5 mph76%30.01 "HgN/A
9:20 AM43 °FPartly sunny.5 mph87%30.01 "HgN/A
8:50 AM43 °FPassing clouds.3 mph87%30.01 "HgN/A
8:20 AM39 °FSunny.3 mph93%30.01 "Hg10 mi
7:50 AM37 °FClear.2 mph100%30.01 "Hg10 mi
7:20 AM37 °FClear.2 mph93%30.04 "Hg10 mi
6:50 AM37 °FClear.2 mph93%30.04 "Hg10 mi
6:20 AM36 °FClear.2 mph100%30.04 "Hg10 mi
5:50 AM37 °FOvercast.1 mph93%30.04 "HgN/A
5:20 AM36 °FOvercast.2 mph93%30.04 "HgN/A
4:50 AM36 °FOvercast.2 mph100%30.04 "HgN/A
4:20 AM34 °FPassing clouds.2 mph100%30.04 "HgN/A
3:50 AM36 °FPassing clouds.3 mph93%30.04 "HgN/A
3:20 AM36 °FPassing clouds.3 mph93%30.07 "HgN/A
2:50 AM36 °FChilly.No wind93%30.07 "HgN/A
2:20 AM37 °FChilly.1 mph87%30.07 "HgN/A
1:50 AM39 °FChilly.2 mph87%30.07 "HgN/A
1:20 AM37 °FChilly.3 mph87%30.07 "HgN/A
12:50 AM41 °FQuite cool.3 mph81%30.07 "HgN/A
12:20 AM41 °FQuite cool.2 mph81%30.07 "HgN/A
11:50 PM
Sep 22
43 °FQuite cool.2 mph71%30.07 "HgN/A
11:20 PM43 °FQuite cool.2 mph76%30.07 "HgN/A
10:50 PM45 °FClear.2 mph71%30.07 "HgN/A
10:20 PM45 °FClear.6 mph66%30.07 "Hg10 mi
9:50 PM46 °FClear.6 mph62%30.07 "Hg10 mi
9:20 PM45 °FClear.3 mph66%30.07 "Hg10 mi
Weather by CustomWeather, © 2014

See weather overviewHow to use our weather pages